Regional Weather Roundup
Issued by NWS

Home | Current Version | Previous Version | Text Only | Print | Product List | Glossary On
Versions: 1 2 3 4 5 6 7 8 9 10 11 12 13 14 15 16 17 18 19 20 21 22 23 24 25 26 27 28 29 30 31 32 33 34 35 36 37 38 39 40 41 42 43 44 45 46 47 48 49 50
000
ASUS44 KBMX 280310
RWRAL

ALABAMA REGIONAL WEATHER ROUNDUP
NATIONAL WEATHER SERVICE BIRMINGHAM AL
1000 PM CDT THU AUG 27 2015

NOTE: "FAIR" INDICATES FEW OR NO CLOUDS BELOW 12,000 FEET
WITH NO SIGNIFICANT WEATHER AND/OR OBSTRUCTIONS TO VISIBILITY.

THE REMARK "TC" DENOTES TEMPERATURE IN DEGREES CELSIUS.

ALZ001>011-014-016>018-020-280400-
NORTH ALABAMA

CITY           SKY/WX    TMP DP  RH WIND       PRES   REMARKS
MUSCLE SHOALS  CLEAR     70  59  68 NE5       30.08R
HUNTSVILLE     CLEAR     74  61  63 NE7       30.06R
DECATUR        CLEAR     67  63  87 N6        30.07R
HALEYVILLE     FAIR      66  63  90 CALM      30.09R
GADSDEN        CLEAR     73  63  68 CALM      30.04S
$$

ALZ012-013-022-023-030>036-040>044-280400-
WEST CENTRAL ALABAMA

CITY           SKY/WX    TMP DP  RH WIND       PRES   REMARKS
TUSCALOOSA     CLEAR     71  66  84 CALM      30.02R
$$

ALZ015-024>027-033>036-040>044-280400-
CENTRAL ALABAMA

CITY           SKY/WX    TMP DP  RH WIND       PRES   REMARKS
BIRMINGHAM     PTCLDY    76  66  71 CALM      30.06R
MONTGOMERY     CLEAR     74  65  73 CALM      30.00R
SHELBY CO ARPT CLEAR     71  68  90 CALM      30.03S
MAXWELL AFB    PTCLDY    78  67  69 N5        30.00R
GREENVILLE     NOT AVBL
$$

ALZ019-021-028-029-037-038-045>048-280400-
EAST CENTRAL ALABAMA

CITY           SKY/WX    TMP DP  RH WIND       PRES   REMARKS
ANNISTON       CLEAR     70  66  87 CALM      30.05R
ALEXANDER CITY CLEAR     77  68  75 NE3       30.04S
AUBURN         CLEAR     75  67  76 NE6       30.05R
$$

ALZ051>064-280400-
SOUTHWEST ALABAMA

CITY           SKY/WX    TMP DP  RH WIND       PRES   REMARKS
MOBILE         CLEAR     75  63  66 N7        29.99S
BROOKLEY FIELD CLEAR     77  63  61 N7        29.99S
EVERGREEN      CLEAR     71  66  84 CALM      29.99S
$$

ALZ049-050-065>069-280400-
SOUTHEAST ALABAMA

CITY           SKY/WX    TMP DP  RH WIND       PRES   REMARKS
DOTHAN         CLEAR     75  62  64 NE7       30.01S
OZARK          PTCLDY    76  65  67 NE5       29.98R
TROY           MOCLDY    73  66  78 CALM      30.00S
EUFAULA        FAIR      75  65  70 CALM      30.00R
$$


USA.gov is the U.S. government's official web portal to all federal, state and local government web resources and services.